Location: Calimesa Mobile Home Ranch
(33.9736°N, 117.0370°W)
Time: 05:26:53
(UTC+00:00)

ATLAS CENTAUR Rocket - Pass Details

Date: 29 May 2024
Orbit: 727 x 36514 km, 27.8° (Epoch: 21 June)

Event Time Altitude Azimuth Distance (km) Brightness Sun altitude
Rises 02:52:46 0° 224° (SW) 16,516 9.0 -0.9°
Reaches altitude 10° 03:50:19 10° 208° (SSW) 26,412 9.7 -11.1°
Drops below altitude 10° 07:28:13 10° 220° (SW) 41,310 10.4 -34.2°
Enters shadow 11:04:54 - 241° (WSW) 27,437 9.3 -16.9°
Exits shadow 11:50:31 - 244° (WSW) 18,817 8.4 -9.4°
Maximum altitude 12:44:03 55° 176° (S) 2,411 4.5 0.1°
Sets 12:51:58 0° 93° (E) 3,560 6.7 1.6°
